| time (UTC) | temp F | wind direction | speed knots | gust knots | rain 1hr in | rain 24hr in | rain mn in | humidity % | barometer mb |
| 20260503181655 | 72 | 247 | 0.0 | 7.8 | 0.00 | 0.00 | 0.00 | 52 | 1111.0 |
| 20260503181155 | 71 | 247 | 0.0 | 4.3 | 0.00 | 0.00 | 0.00 | 52 | 1111.0 |
| 20260503180655 | 71 | 22 | 0.0 | 8.7 | 0.00 | 0.00 | 0.00 | 52 | 1111.0 |
| 20260503180154 | 71 | 247 | 0.0 | 1.7 | 0.00 | 0.00 | 0.00 | 52 | 1111.0 |
| 20260503175654 | 70 | 247 | 0.0 | 5.2 | 0.00 | 0.00 | 0.00 | 52 | 1111.0 |
| 20260503174654 | 70 | 0 | 0.0 | 4.3 | 0.00 | 0.00 | 0.00 | 52 | 1111.0 |
| 20260503174153 | 69 | 0 | 4.3 | 5.2 | 0.00 | 0.00 | 0.00 | 52 | 1111.0 |
| 20260503150644 | 55 | 157 | 0.0 | 0.0 | 0.00 | 0.00 | 0.00 | 50 | 1111.0 |
| 20260503150144 | 54 | 157 | 0.0 | 0.0 | 0.00 | 0.00 | 0.00 | 50 | 1111.0 |
| 20260503140142 | 45 | 157 | 0.0 | 2.6 | 0.00 | 0.00 | 0.00 | 51 | 1111.0 |
| 20260503131138 | 44 | 157 | 0.0 | 6.1 | 0.00 | 0.00 | 0.00 | 51 | 1111.0 |
| 20260503130638 | 44 | 157 | 0.0 | 5.2 | 0.00 | 0.00 | 0.00 | 51 | 1111.0 |
| 20260503100127 | 49 | 157 | 0.0 | 0.0 | 0.00 | 0.00 | 0.00 | 51 | 1111.0 |
| 20260503090124 | 50 | 0 | 0.0 | 0.0 | 0.00 | 0.00 | 0.00 | 52 | 1111.0 |
| 20260503081241 | 50 | 0 | 0.0 | 0.0 | 0.00 | 0.00 | 0.00 | 53 | 1111.0 |
| 20260503080240 | 50 | 0 | 0.0 | 1.7 | 0.00 | 0.00 | 0.00 | 53 | 1111.0 |
| 20260503072738 | 51 | 0 | 0.0 | 0.9 | 0.00 | 0.00 | 0.00 | 10 | 1111.0 |
| 20260503072238 | 51 | 0 | 0.0 | 0.0 | 0.00 | 0.00 | 0.00 | 53 | 1111.0 |
| 20260503071238 | 51 | 0 | 0.0 | 0.0 | 0.00 | 0.00 | 0.00 | 53 | 1111.0 |
| 20260503070737 | 51 | 0 | 0.0 | 0.9 | 0.00 | 0.00 | 0.00 | 53 | 1111.0 |
| 20260503070237 | 52 | 0 | 0.9 | 0.9 | 0.00 | 0.00 | 0.00 | 53 | 1111.0 |
| 20260503060234 | 52 | 0 | 0.0 | 6.1 | 0.00 | 0.00 | 0.00 | 54 | 1111.0 |
| 20260503054232 | 53 | 0 | 0.0 | 1.7 | 0.00 | 0.00 | 0.00 | 54 | 1111.0 |
| 20260503053732 | 54 | 0 | 0.0 | 1.7 | 0.00 | 0.00 | 0.00 | 55 | 1111.0 |
| 20260503052732 | 54 | 22 | 0.0 | 1.7 | 0.00 | 0.00 | 0.00 | 55 | 1111.0 |
| 20260503052232 | 54 | 22 | 0.0 | 0.0 | 0.00 | 0.00 | 0.00 | 55 | 1111.0 |
| 20260503051731 | 54 | 157 | 0.0 | 0.0 | 0.00 | 0.00 | 0.00 | 55 | 1111.0 |
| 20260503050730 | 55 | 157 | 0.0 | 0.0 | 0.00 | 0.00 | 0.00 | 55 | 1111.0 |
| 20260503045730 | 56 | 157 | 0.0 | 0.0 | 0.00 | 0.00 | 0.00 | 55 | 1111.0 |
| 20260503045230 | 56 | 157 | 0.0 | 0.0 | 0.00 | 0.00 | 0.00 | 55 | 1111.0 |
| 20260503044729 | 56 | 157 | 0.0 | 0.9 | 0.00 | 0.00 | 0.00 | 55 | 1111.0 |
| 20260503044229 | 57 | 157 | 0.0 | 0.0 | 0.00 | 0.00 | 0.00 | 55 | 1111.0 |
| 20260503043729 | 57 | 157 | 0.0 | 2.6 | 0.00 | 0.00 | 0.00 | 56 | 1111.0 |
| 20260503043229 | 57 | 157 | 0.0 | 0.9 | 0.00 | 0.00 | 0.00 | 56 | 1111.0 |
| 20260503042228 | 58 | 157 | 0.9 | 8.7 | 0.00 | 0.00 | 0.00 | 57 | 1111.0 |
| 20260503041728 | 58 | 157 | 2.6 | 3.5 | 0.00 | 0.00 | 0.00 | 57 | 1111.0 |
| 20260503040727 | 59 | 157 | 4.3 | 5.2 | 0.00 | 0.00 | 0.00 | 57 | 1111.0 |
| 20260503040227 | 59 | 157 | 0.0 | 7.8 | 0.00 | 0.00 | 0.00 | 57 | 1111.0 |
| 20260503034726 | 61 | 157 | 1.7 | 10.4 | 0.00 | 0.00 | 0.00 | 58 | 1111.0 |
| 20260503030223 | 68 | 157 | 4.3 | 4.3 | 0.00 | 0.00 | 0.00 | 60 | 1111.0 |
| 20260503025724 | 69 | 157 | 0.0 | 2.6 | 0.00 | 0.00 | 0.00 | 60 | 1111.0 |
| 20260503025223 | 70 | 157 | 0.0 | 8.7 | 0.00 | 0.00 | 0.00 | 60 | 1111.0 |
| 20260503023722 | 72 | 157 | 1.7 | 4.3 | 0.00 | 0.00 | 0.00 | 61 | 1111.0 |
| 20260503023222 | 72 | 247 | 0.0 | 4.3 | 0.00 | 0.00 | 0.00 | 61 | 1111.0 |
| 20260503022721 | 73 | 157 | 0.0 | 2.6 | 0.00 | 0.00 | 0.00 | 61 | 1111.0 |
| 20260503022221 | 73 | 247 | 0.0 | 4.3 | 0.00 | 0.00 | 0.00 | 61 | 1111.0 |
| 20260503021721 | 74 | 247 | 4.3 | 6.1 | 0.00 | 0.00 | 0.00 | 61 | 1111.0 |
| 20260503020221 | 75 | 247 | 0.0 | 3.5 | 0.00 | 0.00 | 0.00 | 61 | 1111.0 |
| 20260503015721 | 75 | 247 | 0.0 | 1.7 | 0.00 | 0.00 | 0.00 | 60 | 1111.0 |
| 20260503015219 | 76 | 247 | 0.0 | 0.9 | 0.00 | 0.00 | 0.00 | 60 | 1111.0 |
| 20260503014720 | 76 | 247 | 0.0 | 0.0 | 0.00 | 0.00 | 0.00 | 60 | 1111.0 |
| 20260503013719 | 76 | 247 | 0.0 | 5.2 | 0.00 | 0.00 | 0.00 | 60 | 1111.0 |
| 20260503012718 | 76 | 0 | 0.0 | 7.8 | 0.00 | 0.00 | 0.00 | 60 | 1111.0 |
| 20260503012218 | 77 | 0 | 0.0 | 5.2 | 0.00 | 0.00 | 0.00 | 59 | 1111.0 |
| 20260503010217 | 78 | 337 | 0.0 | 3.5 | 0.00 | 0.00 | 0.00 | 60 | 1111.0 |
| 20260503005717 | 78 | 315 | 0.0 | 0.0 | 0.00 | 0.00 | 0.00 | 60 | 1111.0 |
| 20260503003715 | 77 | 180 | 0.0 | 0.0 | 0.00 | 0.00 | 0.00 | 60 | 1111.0 |
| 20260503003215 | 77 | 180 | 0.0 | 3.5 | 0.00 | 0.00 | 0.00 | 59 | 1111.0 |
| 20260503002716 | 77 | 202 | 0.0 | 0.0 | 0.00 | 0.00 | 0.00 | 58 | 1111.0 |
| 20260503001715 | 77 | 337 | 0.0 | 5.2 | 0.00 | 0.00 | 0.00 | 58 | 1111.0 |
| 20260502235213 | 76 | 180 | 0.0 | 1.7 | 0.00 | 0.00 | 0.00 | 57 | 1111.0 |
| 20260502234714 | 75 | 180 | 0.0 | 3.5 | 0.00 | 0.00 | 0.00 | 57 | 1111.0 |
| 20260502233713 | 75 | 247 | 0.0 | 0.0 | 0.00 | 0.00 | 0.00 | 56 | 1111.0 |
| 20260502232712 | 75 | 247 | 0.0 | 0.0 | 0.00 | 0.00 | 0.00 | 55 | 1111.0 |
| 20260502232212 | 74 | 247 | 0.0 | 0.9 | 0.00 | 0.00 | 0.00 | 54 | 1111.0 |
| 20260502231712 | 74 | 247 | 0.0 | 3.5 | 0.00 | 0.00 | 0.00 | 54 | 1111.0 |
| 20260502223209 | 75 | 247 | 0.0 | 0.9 | 0.00 | 0.00 | 0.00 | 52 | 1111.0 |
| 20260502222709 | 74 | 247 | 0.9 | 3.5 | 0.00 | 0.00 | 0.00 | 52 | 1111.0 |
| 20260502222209 | 74 | 157 | 0.0 | 3.5 | 0.00 | 0.00 | 0.00 | 52 | 1111.0 |
| 20260502221708 | 74 | 157 | 0.0 | 2.6 | 0.00 | 0.00 | 0.00 | 52 | 1111.0 |
| 20260502220208 | 74 | 157 | 0.0 | 5.2 | 0.00 | 0.00 | 0.00 | 51 | 1111.0 |
| 20260502214205 | 74 | 247 | 0.0 | 3.5 | 0.00 | 0.00 | 0.00 | 51 | 1111.0 |
| 20260502213205 | 74 | 247 | 0.0 | 4.3 | 0.00 | 0.00 | 0.00 | 51 | 1111.0 |
| 20260502212704 | 73 | 247 | 0.0 | 4.3 | 0.00 | 0.00 | 0.00 | 51 | 1111.0 |
| 20260502203702 | 73 | 247 | 0.0 | 4.3 | 0.00 | 0.00 | 0.00 | 53 | 1111.0 |
| 20260502202201 | 72 | 247 | 0.0 | 0.0 | 0.00 | 0.00 | 0.00 | 53 | 1111.0 |
| 20260502201219 | 72 | 135 | 0.0 | 0.0 | 0.00 | 0.00 | 0.00 | 53 | 1111.0 |
| 20260502200700 | 72 | 247 | 0.0 | 0.0 | 0.00 | 0.00 | 0.00 | 53 | 1111.0 |
| 20260502195659 | 71 | 247 | 0.0 | 0.0 | 0.00 | 0.00 | 0.00 | 53 | 1111.0 |
| 20260502195200 | 71 | 247 | 0.0 | 3.5 | 0.00 | 0.00 | 0.00 | 54 | 1111.0 |
| 20260502194159 | 71 | 247 | 0.0 | 5.2 | 0.00 | 0.00 | 0.00 | 54 | 1111.0 |
| 20260502193658 | 71 | 247 | 0.0 | 3.5 | 0.00 | 0.00 | 0.00 | 54 | 1111.0 |
| 20260502184657 | 71 | 247 | 0.0 | 0.0 | 0.00 | 0.00 | 0.00 | 53 | 1111.0 |
| 20260502183655 | 71 | 247 | 0.0 | 0.0 | 0.00 | 0.00 | 0.00 | 53 | 1111.0 |
| 20260502182655 | 70 | 247 | 0.0 | 0.0 | 0.00 | 0.00 | 0.00 | 53 | 1111.0 |
| 20260502182154 | 70 | 247 | 0.0 | 0.0 | 0.00 | 0.00 | 0.00 | 53 | 1111.0 |